This demonstration page uses our WeatherBlox Daily Observations layout. Learn more.

Left ArrowRight Arrow

53.62937, 11.41316

Hourly Observations for January 10, 2020

Temp ( °F °C ) Dew Point ( °F °C ) Humidity (%) Winds ( mph kmh ) Pressure ( in mb ) Visibility ( mi km ) Precip ( " mm )
6:50 am 06:50 Mostly Cloudy with Light Rain 52 11 50 10 94 94 SW 12 19 29.74 1007 30 48 N/A
7:20 am 07:20 Mostly Cloudy with Light Rain 52 11 50 10 94 94 SW 13 20 29.74 1007 30 48 N/A
7:50 am 07:50 Mostly Cloudy with Light Rain 52 11 48 9 88 88 WSW 14 22 29.77 1008 30 48 N/A
8:20 am 08:20 Partly Cloudy 50 10 46 8 88 88 W 14 22 29.77 1008 30 48 N/A
8:50 am 08:50 Mostly Sunny 50 10 45 7 82 82 W 14 22 29.80 1009 30 48 N/A
9:20 am 09:20 Mostly Sunny 48 9 43 6 82 82 WSW 16 26 29.80 1009 30 48 N/A
9:50 am 09:50 Mostly Cloudy 48 9 45 7 87 87 WSW 14 22 29.80 1009 30 48 N/A
10:20 am 10:20 Mostly Cloudy 48 9 43 6 82 82 WSW 16 26 29.83 1010 30 48 N/A
10:50 am 10:50 Mostly Cloudy 48 9 43 6 82 82 WSW 15 24 29.83 1010 30 48 N/A
11:20 am 11:20 Partly Cloudy 48 9 43 6 82 82 WSW 16 26 29.83 1010 30 48 N/A
11:50 am 11:50 Partly Cloudy 50 10 43 6 76 76 WSW 18 30 29.83 1010 30 48 N/A
12:20 pm 12:20 Mostly Cloudy 48 9 43 6 82 82 WSW 20 31 29.86 1011 30 48 N/A
12:50 pm 12:50 Mostly Cloudy with Light Rain 48 9 43 6 82 82 WSW 15 24 29.86 1011 30 48 N/A
1:20 pm 13:20 Mostly Cloudy with Drizzle 46 8 43 6 87 87 WSW 12 19 29.86 1011 30 48 N/A
1:50 pm 13:50 Mostly Cloudy with Drizzle 46 8 43 6 87 87 W 12 19 29.86 1011 5 8 N/A
2:20 pm 14:20 Mostly Cloudy 46 8 43 6 87 87 WSW 12 19 29.86 1011 30 48 N/A
2:50 pm 14:50 Mostly Cloudy 46 8 43 6 87 87 WSW 13 20 29.86 1011 30 48 N/A
3:20 pm 15:20 Mostly Cloudy 46 8 43 6 87 87 WSW 13 20 29.89 1012 30 48 N/A
3:50 pm 15:50 Mostly Cloudy 46 8 43 6 87 87 W 13 20 29.89 1012 30 48 N/A
4:20 pm 16:20 Mostly Cloudy 46 8 43 6 87 87 W 10 17 29.92 1013 6 9 N/A
4:50 pm 16:50 Mostly Cloudy with Light Rain 43 6 41 5 93 93 W 13 20 29.95 1014 2 3 N/A
5:20 pm 17:20 Mostly Cloudy with Drizzle 43 6 41 5 93 93 VRB 8 13 29.97 1015 2 3 N/A
5:50 pm 17:50 Mostly Cloudy with Light Rain 41 5 39 4 93 93 VRB 6 9 30.00 1016 2 3 N/A
6:20 pm 18:20 Mostly Cloudy with Light Rain 41 5 39 4 93 93 VRB 7 11 30.03 1017 30 48 N/A
6:50 pm 18:50 Mostly Cloudy 41 5 37 3 87 87 NW 8 13 30.06 1018 30 48 N/A
7:20 pm 19:20 Mostly Cloudy 41 5 36 2 81 81 VRB 6 9 30.09 1019 30 48 N/A
7:50 pm 19:50 Mostly Cloudy with Light Rain 41 5 37 3 87 87 WNW 7 11 30.09 1019 30 48 N/A

Powered by AerisWeather